Regional Weather Roundup
Issued by NWS Upton, NY

Current Version | Previous Version | Text Only | Print | Product List | Glossary On
Versions: 1 2 3 4 5 6 7 8 9 10 11 12 13 14 15 16 17 18 19 20 21 22 23 24 25 26 27 28 29 30 31 32 33 34 35 36 37 38 39 40 41 42 43 44 45 46 47 48 49 50
082 ASUS41 KOKX 230405 RWROKX REGIONAL WEATHER ROUNDUP NATIONAL WEATHER SERVICE NEW YORK NY 1200 AM EDT SAT JUL 23 2016 NOTE: "FAIR" INDICATES FEW OR NO CLOUDS BELOW 12,000 FEET WITH NO SIGNIFICANT WEATHER AND/OR OBSTRUCTIONS TO VISIBILITY. NYZ071-072-176-178-NJZ106-104-230500- NEW YORK CITY METRO AREA CITY SKY/WX TMP DP RH WIND PRES REMARKS Central Park CLEAR 85 69 58 VRB6G17 29.84R LaGuardia APRT PTCLDY 88 70 55 SW12 29.80R HX 93 Kennedy INTL PTCLDY 78 72 81 S9 29.83R Newark/Liberty PTCLDY 85 71 63 SW15 29.81R HX 90 BRNX BOT. GARD N/A 86 68 54 W6 29.84R Wall St Helipt CLEAR 82 72 69 W8 29.82S Teterboro CLEAR 86 67 52 W9 29.79R $$ NYZ177-179-078>081-230500- LONG ISLAND NEW YORK CITY SKY/WX TMP DP RH WIND PRES REMARKS FARMINGDALE CLEAR 81 70 69 SW13 29.82S ISLIP PTCLDY 79 70 74 SW10 29.81S SHIRLEY PTCLDY 80 70 71 SW8 29.82S RIVERHEAD NOT AVBL WESTHAMPTON CLEAR 77 69 76 SW10G21 29.83S SOUTHAMPTON N/A 75 72 88 W8 29.77F BRIDGEHAMPTON N/A 75 70 83 N3 29.80F EAST HAMPTON FAIR 75 70 84 SW12 29.81S MONTAUK POINT N/A 76 71 85 SW9G23 29.81S $$ NYZ052-065-067-230500- HUDSON VALLEY CITY SKY/WX TMP DP RH WIND PRES REMARKS WHITE PLAINS CLEAR 84 68 58 W7 29.82R NEWBURGH PTCLDY 77 70 78 NW6 29.84R MONTGOMERY CLEAR 75 69 81 CALM 29.83R POUGHKEEPSIE CLOUDY 78 73 84 NE3 29.80R ALBANY PTCLDY 73 64 73 SW8 29.78R $$ NJZ001-105-106-008-010-013-015-019>022-104-230500- NEW JERSEY CITY SKY/WX TMP DP RH WIND PRES REMARKS NEWARK/LIBERTY PTCLDY 85 71 63 SW15 29.81R HX 90 TETERBORO CLEAR 86 67 52 W9 29.79R CALDWELL CLEAR 83 69 62 SW3 29.82R MORRISTOWN CLEAR 81 64 57 SW7 29.83R SOMERVILLE CLEAR 82 68 62 CALM 29.82R SUSSEX CLEAR 74 68 81 CALM 29.85R ANDOVER N/A 73 67 81 CALM 29.86R TRENTON CLEAR 82 71 69 SW6 29.84S MILLVILLE PTCLDY 81 73 76 SW6 29.89S ATLANTIC CITY CLEAR 82 74 76 SW10 29.88S WRIGHTSTOWN CLEAR 80 69 70 SW8 29.84R TOMS RIVER CLEAR 79 71 76 SW9 29.86S BELMAR CLEAR 82 69 64 SW14 29.86S $$ PAZ047>061-062-071-230500- EASTERN PENNSYLVANIA CITY SKY/WX TMP DP RH WIND PRES REMARKS PHILADELPHIA PTCLDY 82 72 71 SW10 29.87S ALLENTOWN CLEAR 82 67 60 W7 29.86R SCRANTON CLEAR 77 67 71 S5 29.89R $$ CTZ002-004>006-009-010-012-RIZ004-006-007-MAZ004-011-015-230500- SOUTHERN NEW ENGLAND IN CT CITY SKY/WX TMP DP RH WIND PRES REMARKS BRADLEY INTL MOCLDY 77 73 87 S5 29.78R HARTFORD MOCLDY 76 71 85 S8 29.79R DANBURY PTCLDY 79 67 66 W5 29.83R WTRBRY/OXFORD N/A 75 68 78 N12 29.84R BRIDGEPORT PTCLDY 80 71 74 SW8 29.79R MERIDEN CLOUDY 78 74 87 CALM 29.80R NEW HAVEN CLEAR 79 70 74 SW7 29.80R CHESTER FAIR 79 72 78 VRB5G12 29.81S GROTON PTCLDY 78 71 79 CALM 29.79F WILLIMANTIC NOT AVBL IN RI CITY SKY/WX TMP DP RH WIND PRES REMARKS PROVIDENCE TSTM 71 67 87 SW13 29.80F BLOCK ISLAND N/A N/A N/A N/A SW21G26 29.80 WESTERLY MOCLDY 77 69 76 VRB5 29.81S IN MA CITY SKY/WX TMP DP RH WIND PRES REMARKS BOSTON PTCLDY 79 70 74 SW13G21 29.74S WORCESTER CLEAR 73 69 87 W9 29.81S WESTFIELD CLEAR 73 68 84 S3 29.78R PROVINCETOWN PTCLDY 71 69 93 SW13 29.76F NANTUCKET CLOUDY 72 70 93 SW17 29.81F FOG $$ ANZ330-335-338-340-345-350-353-355-230500- COASTAL MARINE OBSERVATIONS STATION/POSITION TIME SKY/WX TEMP WIND PRES VSBY WAVE AIR SEA DIR/SP/G HT/PER (UTC) (F) (DEG/KT/KT) (MB) (MI) (FT/S) NY HARB ENTRANCE 0250 76 72 220/ 14/ 16 1009.4 4/ 6 20S FIRE ISLAND 0250 76 74 220/ 17/ 21 1009.5 6/ 6 GREAT SOUTH BAY 0330 79 80 210/ 16/ 21 N/A 23 SSW MONTAUK P 0250 76 72 230/ 19/ 23 1009.7 6/ 6 15 E BARNEGAT LI 0322 74 N/A 5/ 6 HUDSON CANYON 0250 78 76 1011.1 5/ 6 KINGS POINT 0300 85 73 N/A EXECUTION ROCKS 0300 80 200/ 12/ 14 N/A CENTRAL LI SOUND 0300 77 72 220/ 14/ 16 N/A 2/ 4 EASTERN LI SOUND 0300 74 69 230/ 12/ 17 N/A ROBBINS REEF 0300 86 N/A $$ >>>>>>>>>>>>>>>>>>>>>>>>>>>> KEY <<<<<<<<<<<<<<<<<<<<<<<<<<< > < > SKY/WX - SKY CONDITION/PRESENT WEATHER < > TMP - TEMPERATURE IN FAHRENHEIT < > DP - DEWPOINT IN FAHRENHEIT < > RH - RELATIVE HUMIDITY IN PERCENT < > WIND - DIRECTION AND SPEED IN MPH < > PRES - MEAN SEA LEVEL PRESSURE IN INCHES OF HG < > WCI - WIND CHILL INDEX < > VSB - VISIBILITY IN MILES < > HX - HEAT INDEX < > TC - TEMPERATURE IN CELSIUS < > VRB - VARIABLE WIND DIRECTION < > < >>>>>>>>>>>>>>>>>>>>>>>>>>>> KEY <<<<<<<<<<<<<<<<<<<<<<<<<<<

USA.gov is the U.S. government's official web portal to all federal, state and local government web resources and services.